RH
62 64 61 52 46 44 42 42 43 46 47 46 44 42 39 37 37 36 35 35 36 36 36 37 38 38 37 37 37 37 36 36 36 36 35 34 34 35 37 37 40 43 44 44 43 41 40 41 44 46 47 46 45 43 43 42 41 40 41 44 46 47 50 54 56 57 59 60 59 55 52 51 52 54 56 56 56 55 56 59 59 58 56 57 56
67 71 72 64 56 51 49 48 46 45 47 48 47 46 45 44 43 41 40 39 38 37 36 36 36 37 36 37 37 37 35 34 35 36 37 36 35 35 36 38 42 44 44 42 41 40 40 40 41 41 41 41 41 41 42 43 43 42 45 49 49 49 53 57 58 58 59 59 56 54 52 51 51 50 52 54 56 58 60 64 65 63 63 63 62
70 73 76 72 66 60 56 54 52 50 50 49 48 48 48 48 47 46 47 48 47 45 42 40 39 39 39 39 39 38 37 36 36 36 37 38 38 38 39 39 42 44 45 44 44 43 42 41 40 40 41 41 42 44 46 46 46 45 48 52 52 50 51 52 53 54 55 55 55 54 54 53 52 50 49 51 55 58 61 64 65 64 65 66 67
73 72 74 73 71 67 63 62 62 63 62 59 59 59 60 60 59 53 50 49 50 49 47 46 44 43 43 44 43 41 40 39 38 36 36 37 38 39 40 40 42 45 46 46 46 45 44 45 46 47 48 48 49 50 51 51 50 48 49 51 51 51 52 52 53 56 56 56 55 55 54 53 53 53 53 54 55 57 59 61 62 62 61 63 68
75 73 71 71 72 71 67 65 65 67 67 67 68 67 65 66 68 66 61 57 54 51 51 51 49 45 44 45 45 44 43 42 40 38 37 37 37 38 39 39 40 42 44 44 45 46 47 48 50 51 51 51 51 52 52 52 53 53 53 53 54 57 59 58 58 58 58 57 56 54 52 51 53 55 57 58 58 56 56 57 58 57 56 57 62
75 74 73 73 74 71 66 62 62 65 67 68 70 70 68 69 71 70 68 68 67 66 64 62 60 55 51 49 46 46 46 43 42 41 39 39 39 39 40 40 41 42 43 42 43 46 49 50 51 51 51 51 52 53 52 51 53 55 54 55 58 61 61 60 59 58 58 58 57 55 52 50 50 52 52 54 56 56 55 54 55 55 54 53 57
75 73 71 74 77 73 68 63 61 63 65 67 70 72 72 72 72 69 66 67 69 70 69 68 69 70 67 62 55 49 49 48 45 43 42 41 41 41 41 41 42 42 44 47 52 57 59 58 56 54 53 54 54 54 54 55 57 58 58 59 60 60 60 60 60 58 58 58 57 56 52 48 48 49 48 48 50 53 54 54 55 56 55 55 57
78 75 72 75 78 75 70 66 61 63 68 72 73 73 70 70 72 71 70 69 68 67 67 65 66 69 71 71 66 56 51 51 50 48 47 47 46 46 46 45 45 43 44 50 59 64 65 64 62 59 58 59 57 55 56 58 60 61 63 64 63 62 61 61 60 59 58 56 53 51 47 44 45 47 46 46 47 49 51 52 54 55 55 56 58
80 79 77 77 76 72 68 63 60 64 74 78 75 72 68 69 73 72 72 75 75 72 70 67 65 67 70 72 73 66 56 50 51 52 52 53 53 53 53 52 51 49 48 51 58 62 63 64 65 64 61 60 60 58 57 60 62 64 64 64 66 67 66 64 61 61 61 56 50 46 42 40 42 44 46 47 48 49 50 51 52 53 54 56 59
77 78 80 80 77 72 68 65 64 67 74 78 75 70 65 63 67 68 69 74 76 73 72 69 64 65 68 69 74 76 65 52 49 52 54 57 59 59 59 58 57 56 57 59 62 63 61 61 65 68 63 59 60 62 61 62 64 65 66 66 65 66 66 64 63 62 61 57 52 47 44 42 42 43 44 47 50 50 51 53 54 56 58 59 60
79 79 82 86 85 78 72 69 68 68 69 71 71 69 64 60 60 62 63 68 71 69 69 69 66 64 66 67 71 77 71 57 49 49 51 55 58 61 63 63 61 61 63 65 66 65 62 60 64 69 65 59 60 63 64 63 61 61 63 65 65 65 65 64 62 61 62 62 60 57 55 51 49 48 47 47 48 50 51 52 55 59 62 64 65
82 84 85 87 87 85 81 76 72 69 67 66 65 64 63 61 61 62 61 64 68 68 68 72 72 70 69 68 66 68 66 58 51 50 51 53 54 58 64 66 65 61 60 61 64 68 67 62 62 66 66 64 62 60 60 60 58 56 57 60 62 64 64 64 62 60 60 62 63 61 60 58 56 55 53 51 50 51 54 55 58 60 63 65 66
74 80 82 83 82 83 84 82 79 76 73 70 69 68 67 66 65 65 65 66 67 67 68 72 74 71 69 69 67 63 58 57 57 55 53 53 54 56 61 67 68 66 62 59 61 65 66 62 60 61 60 58 58 58 61 63 61 58 57 57 59 60 60 60 59 58 57 57 57 57 57 58 58 57 58 59 60 61 62 63 64 64 65 66 67
65 68 73 77 79 80 80 80 80 84 83 79 77 75 72 70 68 67 68 67 66 65 66 70 71 70 69 71 71 63 56 56 59 56 54 56 58 59 60 62 64 65 65 65 64 64 63 61 61 61 58 56 58 60 62 64 63 61 58 56 55 54 54 54 55 56 56 55 54 53 53 54 56 56 59 63 66 68 69 68 68 68 67 69 71
65 64 67 73 78 81 82 81 81 86 89 88 85 81 77 74 71 68 67 66 65 65 66 69 71 71 71 70 67 63 59 59 60 58 57 60 63 66 66 65 64 64 65 67 66 64 62 61 60 60 61 62 64 63 62 63 64 63 60 58 55 51 48 49 50 52 53 53 53 54 53 53 53 55 57 61 65 69 70 69 69 69 67 68 71
66 66 67 72 77 80 84 86 85 86 89 89 87 85 83 81 78 75 72 68 67 66 66 69 70 72 73 70 66 66 69 69 67 65 66 68 70 70 69 68 67 67 65 64 64 64 65 64 60 56 55 59 61 61 60 63 67 66 63 60 57 53 50 48 46 47 48 49 50 53 56 56 54 54 56 61 65 68 70 71 70 70 69 67 69
66 66 67 70 74 77 79 82 83 83 84 86 88 88 88 85 82 81 78 74 71 68 68 69 71 74 75 73 71 72 74 74 73 72 72 73 75 75 74 71 70 69 69 69 68 68 69 69 66 62 59 60 60 57 53 56 62 65 64 62 59 58 57 53 48 45 46 47 49 51 54 57 57 56 56 59 63 66 70 72 72 72 72 71 71
70 71 72 73 74 75 76 76 79 80 80 83 85 86 84 81 78 77 76 75 74 72 71 70 70 72 74 74 75 76 77 76 77 76 74 74 76 79 79 78 75 73 73 74 74 74 74 75 74 73 72 72 71 67 59 52 52 57 61 63 63 62 60 59 57 52 47 46 47 47 50 55 59 61 61 59 59 62 67 72 74 73 72 73 75
76 77 79 79 77 78 78 77 78 79 80 79 79 79 78 74 71 69 68 69 70 72 75 75 73 72 74 77 78 78 78 79 79 78 75 74 76 79 81 83 83 79 76 77 79 79 79 80 80 80 80 79 80 78 72 63 58 57 59 61 65 66 64 63 64 59 52 48 47 46 48 51 56 61 63 62 62 61 64 69 73 73 71 72 75
74 75 77 79 79 80 81 78 74 73 74 74 74 74 74 72 69 67 67 67 68 70 74 77 76 73 75 78 79 78 79 80 82 84 85 82 82 82 82 84 85 82 79 80 80 81 81 82 84 84 85 86 86 85 83 80 75 71 68 66 66 65 65 66 66 62 58 56 53 48 47 50 54 57 59 63 66 66 65 67 71 72 71 70 72
65 66 70 74 75 76 75 72 71 68 66 67 68 69 71 71 69 66 64 62 63 64 67 70 73 74 75 79 82 82 82 82 83 87 90 90 90 92 91 89 88 88 88 88 87 86 86 86 88 89 89 90 90 89 89 88 85 82 81 79 74 67 64 66 67 63 62 65 63 55 50 51 54 54 54 58 64 70 72 72 73 74 74 72 72
66 65 66 70 71 70 68 66 66 65 62 61 62 62 64 66 66 64 61 58 58 58 60 64 69 72 74 76 79 82 83 83 82 81 80 81 85 91 97 96 93 92 94 93 93 95 94 92 91 92 93 93 93 92 92 91 89 86 84 84 82 75 67 65 65 62 60 65 67 62 56 54 54 54 54 56 60 68 77 80 78 76 74 73 75
69 70 70 71 71 69 66 61 60 60 59 58 58 58 60 61 61 62 62 62 61 60 59 61 64 68 71 72 72 74 75 77 77 77 77 78 80 83 89 92 91 91 92 91 92 94 93 92 93 93 93 93 93 91 89 88 86 85 83 82 83 79 72 68 66 63 61 63 66 66 63 60 59 58 58 58 62 70 79 84 82 78 73 70 70
64 66 68 68 65 62 59 56 56 56 55 55 54 55 57 59 59 60 62 62 63 62 61 60 60 62 65 67 68 69 70 70 70 72 73 75 77 77 80 83 84 85 85 85 86 87 87 88 91 92 90 88 88 87 86 86 85 84 83 82 81 80 77 75 73 69 66 66 69 72 70 66 66 66 64 62 67 77 83 84 82 78 73 70 70
60 59 58 57 56 55 52 51 52 52 51 52 53 54 56 57 58 59 60 60 60 60 60 60 60 59 60 61 61 61 62 63 65 67 69 71 72 74 75 76 75 74 74 74 75 76 76 79 83 87 88 88 88 88 89 89 88 87 86 85 84 82 81 81 79 78 76 75 77 79 78 73 72 75 74 71 74 82 87 84 81 79 77 76 76
58 56 54 52 51 50 48 46 45 45 46 46 46 48 51 53 55 57 58 58 58 58 58 57 57 56 55 53 50 49 50 51 53 56 59 61 62 63 64 65 64 63 63 62 63 65 70 75 81 85 88 90 91 92 92 91 89 89 89 88 88 87 87 87 86 88 90 88 84 83 82 80 79 80 82 81 80 84 88 88 86 84 82 81 80
59 57 54 52 51 49 47 45 43 43 44 44 43 42 42 43 45 47 49 50 50 51 51 49 47 45 43 41 39 38 39 40 40 40 42 44 46 48 52 55 55 54 53 53 55 58 64 72 79 83 85 87 89 91 92 91 90 89 88 86 86 87 89 90 90 92 94 93 89 86 84 83 83 83 85 86 86 86 88 91 91 89 87 85 83
58 57 54 52 51 50 49 48 46 45 46 48 47 45 44 42 41 41 41 41 40 39 39 39 38 37 37 36 35 35 34 34 34 34 33 34 36 38 43 46 48 52 57 61 62 61 63 68 75 80 83 87 88 88 89 89 88 87 86 84 84 87 88 89 91 91 91 91 90 88 86 85 86 87 87 87 87 87 89 89 89 89 87 85 83
53 53 51 49 50 49 48 48 47 45 46 47 46 45 44 42 41 40 40 39 37 35 34 33 32 32 32 32 31 31 31 31 31 31 31 32 33 34 36 38 42 49 58 65 66 67 68 70 72 75 79 82 83 84 86 86 86 85 84 82 82 83 84 85 86 86 86 86 86 86 85 85 85 85 85 85 86 87 88 88 88 88 88 85 83
46 47 47 46 46 47 47 46 45 44 45 44 42 41 41 39 37 37 36 34 34 34 33 30 28 26 26 26 25 25 25 26 25 26 28 30 32 32 32 33 37 43 51 56 57 59 62 65 67 68 69 70 71 72 74 75 76 77 78 77 77 76 76 76 77 78 79 80 80 80 81 81 82 81 82 84 87 88 87 86 86 87 87 84 80
43 42 42 41 41 42 42 42 42 40 40 39 38 36 36 34 32 31 31 29 27 28 28 26 23 22 22 23 21 20 20 20 21 24 28 31 32 32 31 30 31 35 40 43 45 47 50 53 56 58 59 60 62 63 64 65 65 66 68 69 69 69 70 71 72 73 73 74 75 76 77 79 80 80 80 81 83 85 85 86 86 86 85 82 79
38 36 35 33 33 33 34 34 34 33 33 34 34 33 32 30 28 27 28 26 23 23 24 23 21 21 21 22 20 18 16 16 18 23 29 31 32 34 33 30 29 29 30 30 32 34 37 40 44 47 51 54 56 57 59 60 60 60 62 62 62 63 64 64 65 65 66 68 71 74 77 78 79 79 79 79 78 79 80 80 80 80 80 79 81
36 34 33 30 27 25 26 28 27 26 26 28 29 28 28 28 27 25 26 25 23 22 22 22 21 20 20 20 20 17 15 14 17 23 29 30 29 30 30 29 29 29 27 26 26 27 30 34 38 41 43 46 49 51 52 54 54 55 55 56 57 58 59 60 62 62 62 65 70 73 75 76 77 77 77 78 78 78 78 78 78 80 81 80 80
35 34 32 31 27 22 20 20 19 19 19 20 22 24 25 25 24 24 23 23 22 22 23 22 22 21 21 21 21 20 19 17 18 23 28 29 28 28 28 28 28 27 26 26 26 27 30 35 37 37 38 40 42 45 46 47 48 49 48 49 50 50 52 57 61 60 61 65 69 72 73 74 75 76 78 80 81 82 83 83 83 82 81 78 76
29 30 30 30 29 25 21 18 14 12 13 15 16 19 21 22 22 22 23 23 23 24 24 24 22 22 23 23 22 22 23 22 21 23 27 28 28 27 27 27 27 27 27 28 28 28 30 34 36 36 35 37 38 40 42 43 44 45 44 44 44 43 44 47 49 52 57 61 63 65 68 70 72 74 76 78 81 83 84 84 82 81 79 77 75
22 25 27 28 28 25 23 19 13 13 16 17 16 18 20 22 22 22 23 23 23 24 24 24 23 23 23 24 23 23 24 26 26 25 26 26 27 26 26 27 29 29 28 29 30 30 30 33 36 36 36 36 37 38 39 39 41 41 41 41 41 40 40 40 40 45 54 58 58 60 63 64 64 66 69 72 75 77 78 78 77 76 74 73 70
20 22 24 25 24 22 20 16 15 18 22 22 19 20 22 22 22 22 22 22 22 22 22 23 23 23 23 24 23 23 24 27 29 28 27 27 27 26 27 29 30 31 30 31 33 32 32 34 37 38 38 39 39 40 40 39 40 40 40 40 40 39 39 39 38 40 45 50 52 55 57 57 57 59 62 66 68 68 68 68 67 65 63 62 60
21 22 22 22 22 22 20 18 19 23 26 25 23 22 22 22 22 21 21 21 21 21 21 22 22 22 22 22 22 22 23 26 27 26 27 28 27 27 28 29 29 30 31 32 33 33 33 35 36 35 36 38 40 40 41 41 41 41 41 40 41 41 40 40 39 39 40 42 44 47 51 53 55 55 56 56 54 52 52 53 54 53 52 51 51
23 23 23 24 24 24 23 21 22 23 25 25 25 24 24 23 22 21 20 21 21 20 21 22 22 23 23 23 23 23 24 27 27 27 27 28 28 28 28 29 29 30 31 32 32 31 31 32 32 33 35 38 39 41 42 42 42 42 42 42 42 43 43 43 43 43 42 42 42 43 45 47 47 46 44 43 42 42 43 45 46 47 46 45 46
25 26 27 28 27 26 25 25 26 26 25 25 25 24 24 23 22 21 21 21 21 21 21 21 23 23 24 24 24 26 29 31 32 31 31 32 33 32 32 33 34 34 35 35 35 34 33 32 32 32 32 34 36 39 42 43 44 44 43 42 42 42 42 42 42 42 43 43 43 42 42 42 41 39 39 39 41 42 43 44 45 43 43 44 46
26 27 29 30 29 27 26 27 27 26 26 26 25 24 24 23 23 23 22 22 22 22 22 22 22 23 23 24 27 30 33 35 36 37 37 37 37 36 37 38 38 37 37 37 37 36 36 35 35 33 31 30 31 34 37 40 43 44 44 43 42 42 41 41 41 41 42 42 41 41 41 41 41 40 39 39 41 43 44 45 44 41 42 45 46
23 25 28 30 29 28 27 27 26 25 25 24 24 24 24 24 24 24 23 23 23 23 23 23 24 25 25 27 30 33 35 37 39 41 41 40 39 38 39 40 40 40 41 42 40 39 38 38 37 36 34 33 33 32 33 34 37 39 41 41 42 43 43 42 42 42 42 42 43 43 44 44 44 44 44 44 44 44 46 47 45 44 45 47 48
20 21 24 27 27 27 27 27 25 24 24 23 23 23 23 23 24 23 23 23 24 23 23 23 25 26 27 29 32 36 36 37 39 41 41 41 41 41 41 41 42 43 44 45 44 43 41 39 37 36 35 34 34 34 33 33 32 33 34 36 38 40 41 42 42 42 43 43 43 44 44 45 46 45 45 47 48 49 50 51 49 47 47 49 49
22 25 27 29 29 28 28 27 25 24 24 24 24 24 25 24 24 24 23 24 24 24 23 24 25 27 29 31 34 37 38 38 40 42 42 41 43 43 43 43 45 46 47 46 45 44 44 43 41 39 38 36 35 35 35 35 34 33 34 34 34 34 35 37 39 39 39 40 40 40 40 41 42 42 42 43 45 49 52 54 53 51 51 51 51
24 28 30 31 31 29 27 26 25 24 24 25 25 25 25 25 24 24 24 24 24 23 23 24 26 28 30 32 34 37 38 40 42 44 43 43 45 47 47 48 48 49 49 49 47 46 45 44 44 44 43 42 39 37 36 36 36 35 35 34 33 33 33 35 36 36 36 36 35 34 35 36 37 38 40 41 43 46 49 50 51 51 53 54 53
27 30 31 31 30 28 26 26 25 25 25 25 25 25 25 25 25 24 24 25 25 25 25 25 26 28 30 32 36 40 42 43 45 46 46 45 45 46 48 50 49 50 52 52 51 49 46 45 46 47 47 45 42 38 36 36 36 35 34 33 33 34 34 35 35 35 34 33 32 31 33 34 34 35 37 40 42 46 48 48 48 49 51 52 52
32 32 31 29 28 27 26 26 26 26 26 26 26 26 26 26 26 26 26 26 26 26 27 27 28 30 31 33 36 40 43 45 45 45 45 44 44 45 48 49 49 50 52 53 51 50 48 48 50 50 47 43 39 36 35 35 35 35 35 34 34 33 33 33 31 29 28 27 28 30 33 34 34 35 37 38 39 42 45 47 49 51 53 53 52
31 30 29 28 27 27 26 27 26 26 27 27 27 26 26 27 27 27 28 28 28 28 29 30 31 33 35 38 39 41 42 42 42 42 43 43 44 47 50 51 49 49 50 50 48 47 47 48 50 47 41 37 36 35 35 37 38 40 42 42 41 39 38 36 34 31 29 28 30 34 36 35 36 39 41 41 40 42 43 44 46 48 52 54 54
31 30 29 28 28 27 27 27 27 27 28 29 28 28 28 29 29 29 29 29 30 30 31 33 35 36 38 40 41 42 42 41 42 43 44 45 46 47 49 50 49 48 48 47 45 43 42 42 42 40 36 35 36 38 39 41 43 45 47 48 47 45 43 41 39 39 40 41 42 42 40 39 40 44 47 47 46 46 45 44 43 42 45 49 52
33 32 30 29 29 29 28 29 29 30 30 30 31 31 31 30 30 30 30 30 31 32 32 34 35 36 37 37 37 39 40 41 43 44 46 46 47 46 46 47 48 48 49 47 43 39 37 37 37 37 36 36 37 40 44 47 49 50 50 50 49 46 44 42 40 42 47 51 52 50 48 47 48 50 49 47 45 45 44 42 40 39 39 42 46
34 32 31 30 30 29 30 31 31 32 32 32 32 32 31 31 31 31 31 31 31 31 32 33 33 33 33 33 34 35 37 39 41 43 43 44 44 45 45 45 46 46 46 44 41 37 36 35 35 37 37 37 38 42 47 51 54 54 53 50 48 45 44 43 44 47 53 58 60 58 56 55 54 53 50 45 43 41 40 39 39 41 41 41 43